H1 CPF 2 NER 2023 4 10 9 100 01 glonass135 H2 1600801 9135 41330 2023 4 10 0 0 0 2023 4 13 23 45 0 900 1 1 0 0 0 1 H9 10 0 60044 0.00000 0 -15537814.231 14465237.530 -14161576.312 10 0 60044 900.00000 0 -16869522.680 15337167.209 -11467482.829 10 0 60044 1800.00000 0 -17836869.234 16128306.275 -8550956.699 10 0 60044 2700.00000 0 -18439828.880 16778841.903 -5468592.548 10 0 60044 3600.00000 0 -18691547.287 17231945.778 -2280182.153 10 0 60044 4500.00000 0 -18617579.392 17436312.033 952441.997 10 0 60044 5400.00000 0 -18254622.110 17348478.381 4166601.763 10 0 60044 6300.00000 0 -17648795.234 16934832.689 7299984.039 10 0 60044 7200.00000 0 -16853543.401 16173220.437 10291843.800 10 0 60044 8100.00000 0 -15927247.658 15054085.077 13084176.459 10 0 60044 9000.00000 0 -14930647.145 13581092.783 15622837.156 10 0 60044 9900.00000 0 -13924179.178 11771214.539 17858585.670 10 0 60044 10800.00000 0 -12965349.294 9654260.974 19748037.187 10 0 60044 11700.00000 0 -12106241.376 7271888.024 21254500.987 10 0 60044 12600.00000 0 -11391272.137 4676113.415 22348691.224 10 0 60044 13500.00000 0 -10855283.961 1927404.104 23009296.403 10 0 60044 14400.00000 0 -10522056.051 -907587.408 23223396.673 10 0 60044 15300.00000 0 -10403296.484 -3758545.410 22986720.787 10 0 60044 16200.00000 0 -10498157.824 -6554168.637 22303737.441 10 0 60044 17100.00000 0 -10793297.198 -9224893.341 21187578.629 10 0 60044 18000.00000 0 -11263479.049 -11705549.573 19659795.659 10 0 60044 18900.00000 0 -11872696.076 -13937840.977 17749951.623 10 0 60044 19800.00000 0 -12575762.009 -15872545.266 15495057.100 10 0 60044 20700.00000 0 -13320309.831 -17471343.810 12938859.106 10 0 60044 21600.00000 0 -14049111.636 -18708203.926 10130996.221 10 0 60044 22500.00000 0 -14702622.314 -19570255.940 7126035.720 10 0 60044 23400.00000 0 -15221639.350 -20058128.181 3982411.227 10 0 60044 24300.00000 0 -15549965.582 -20185725.884 761281.698 10 0 60044 25200.00000 0 -15636961.309 -19979463.587 -2474665.561 10 0 60044 26100.00000 0 -15439876.496 -19476983.832 -5662443.673 10 0 60044 27000.00000 0 -14925862.981 -18725417.031 -8740001.774 10 0 60044 27900.00000 0 -14073580.196 -17779256.891 -11647442.256 10 0 60044 28800.00000 0 -12874325.207 -16697942.289 -14328194.779 10 0 60044 29700.00000 0 -11332638.243 -15543248.847 -16730123.305 10 0 60044 30600.00000 0 -9466357.268 -14376601.378 -18806543.958 10 0 60044 31500.00000 0 -7306118.653 -13256421.492 -20517133.534 10 0 60044 32400.00000 0 -4894324.441 -12235622.689 -21828711.047 10 0 60044 33300.00000 0 -2283619.190 -11359358.649 -22715877.485 10 0 60044 34200.00000 0 465060.105 -10663119.267 -23161501.952 10 0 60044 35100.00000 0 3284779.817 -10171253.903 -23157045.561 10 0 60044 36000.00000 0 6105155.838 -9895983.032 -22702717.683 10 0 60044 36900.00000 0 8855044.470 -9836938.718 -21807462.337 10 0 60044 37800.00000 0 11465266.780 -9981252.018 -20488775.754 10 0 60044 38700.00000 0 13871253.966 -10304182.475 -18772359.224 10 0 60044 39600.00000 0 16015504.742 -10770262.188 -16691614.343 10 0 60044 40500.00000 0 17849753.732 -11334905.468 -14286990.672 10 0 60044 41400.00000 0 19336761.967 -11946415.760 -11605198.491 10 0 60044 42300.00000 0 20451656.247 -12548304.880 -8698301.850 10 0 60044 43200.00000 0 21182762.938 -13081826.732 -5622709.378 10 0 60044 44100.00000 0 21531902.770 -13488618.634 -2438082.181 10 0 60044 45000.00000 0 21514135.543 -13713338.981 793820.105 10 0 60044 45900.00000 0 21156966.581 -13706190.098 4010332.987 10 0 60044 46800.00000 0 20499049.072 -13425219.932 7149097.545 10 0 60044 47700.00000 0 19588437.388 -12838305.510 10149264.368 10 0 60044 48600.00000 0 18480465.103 -11924734.316 12952667.926 10 0 60044 49500.00000 0 17235336.915 -10676316.571 15504948.980 10 0 60044 50400.00000 0 15915535.457 -9097980.837 17756603.633 10 0 60044 51300.00000 0 14583151.556 -7207826.911 19663939.189 10 0 60044 52200.00000 0 13297249.492 -5036632.407 21189918.767 10 0 60044 53100.00000 0 12111377.283 -2626832.036 22304878.746 10 0 60044 54000.00000 0 11071325.868 -31010.471 22987105.484 10 0 60044 54900.00000 0 10213230.719 2690030.306 23223260.330 10 0 60044 55800.00000 0 9562095.191 5469550.506 23008644.617 10 0 60044 56700.00000 0 9130797.446 8237405.808 22347299.218 10 0 60044 57600.00000 0 8919622.745 10922730.594 21251936.133 10 0 60044 58500.00000 0 8916341.067 13456660.742 19743702.638 10 0 60044 59400.00000 0 9096827.243 15774983.621 17851781.580 10 0 60044 60300.00000 0 9426198.061 17820605.426 15612834.516 10 0 60044 61200.00000 0 9860418.895 19545733.190 13070297.496 10 0 60044 62100.00000 0 10348312.461 20913680.274 10273542.321 10 0 60044 63000.00000 0 10833884.924 21900219.591 7276918.983 10 0 60044 63900.00000 0 11258870.836 22494427.562 4138697.656 10 0 60044 64800.00000 0 11565388.601 22698983.157 919931.001 10 0 60044 65700.00000 0 11698593.166 22529909.407 -2316740.631 10 0 60044 66600.00000 0 11609212.396 22015768.458 -5508316.951 10 0 60044 67500.00000 0 11255858.330 21196344.565 -8592673.503 10 0 60044 68400.00000 0 10607014.068 20120871.286 -11509780.303 10 0 60044 69300.00000 0 9642610.784 18845878.585 -14202878.445 10 0 60044 70200.00000 0 8355126.995 17432751.703 -16619590.870 10 0 60044 71100.00000 0 6750162.572 15945105.711 -18712945.021 10 0 60044 72000.00000 0 4846462.486 14446087.262 -20442287.101 10 0 60044 72900.00000 0 2675388.630 12995717.747 -21774070.201 10 0 60044 73800.00000 0 279861.413 11648389.833 -22682501.313 10 0 60044 74700.00000 0 -2287184.880 10450622.499 -23150035.234 10 0 60044 75600.00000 0 -4964768.683 9439168.209 -23167706.610 10 0 60044 76500.00000 0 -7686167.968 8639550.766 -22735294.502 10 0 60044 77400.00000 0 -10381471.494 8065093.937 -21861317.140 10 0 60044 78300.00000 0 -12980268.810 7716480.169 -20562857.751 10 0 60044 79200.00000 0 -15414367.740 7581856.418 -18865225.370 10 0 60044 80100.00000 0 -17620427.113 7637481.199 -16801457.661 10 0 60044 81000.00000 0 -19542396.135 7848884.369 -14411675.588 10 0 60044 81900.00000 0 -21133659.957 8172489.772 -11742302.481 10 0 60044 82800.00000 0 -22358803.133 8557631.662 -8845162.596 10 0 60044 83700.00000 0 -23194918.629 8948879.375 -5776476.497 10 0 60044 84600.00000 0 -23632408.871 9288571.913 -2595772.539 10 0 60044 85500.00000 0 -23675246.408 9519455.420 635264.602 10 0 60045 0.00000 0 -23340684.322 9587312.160 3853985.922 10 0 60045 900.00000 0 -22658429.033 9443470.118 6997989.445 10 0 60045 1800.00000 0 -21669311.321 9047087.187 10006323.318 10 0 60045 2700.00000 0 -20423511.022 8367113.607 12820663.353 10 0 60045 3600.00000 0 -18978410.318 7383849.424 15386438.232 10 0 60045 4500.00000 0 -17396165.407 6090030.901 17653882.641 10 0 60045 5400.00000 0 -15741098.001 4491399.234 19578998.156 10 0 60045 6300.00000 0 -14077015.416 2606726.496 21124403.712 10 0 60045 7200.00000 0 -12464570.867 467296.156 22260059.634 10 0 60045 8100.00000 0 -10958773.807 -1884141.824 22963851.557 10 0 60045 9000.00000 0 -9606753.821 -4394899.672 23222023.120 10 0 60045 9900.00000 0 -8445871.142 -7004302.434 23029448.973 10 0 60045 10800.00000 0 -7502252.451 -9645981.213 22389742.536 10 0 60045 11700.00000 0 -6789813.056 -12250415.248 21315195.837 10 0 60045 12600.00000 0 -6309806.402 -14747618.421 19826551.775 10 0 60045 13500.00000 0 -6050919.900 -17069859.353 17952612.269 10 0 60045 14400.00000 0 -5989913.269 -19154302.459 15729688.828 10 0 60045 15300.00000 0 -6092772.734 -20945459.988 13200905.198 10 0 60045 16200.00000 0 -6316332.579 -22397352.559 10415364.789 10 0 60045 17100.00000 0 -6610295.589 -23475287.522 7427198.432 10 0 60045 18000.00000 0 -6919566.714 -24157180.065 4294510.767 10 0 60045 18900.00000 0 -7186800.647 -24434361.215 1078245.870 10 0 60045 19800.00000 0 -7355054.580 -24311838.359 -2159005.341 10 0 60045 20700.00000 0 -7370432.587 -23807997.161 -5354231.825 10 0 60045 21600.00000 0 -7184608.285 -22953757.571 -8445238.385 10 0 60045 22500.00000 0 -6757117.426 -21791219.845 -11371865.669 10 0 60045 23400.00000 0 -6057321.952 -20371858.354 -14077169.326 10 0 60045 24300.00000 0 -5065961.096 -18754340.092 -16508534.428 10 0 60045 25200.00000 0 -3776222.812 -17002060.662 -18618702.810 10 0 60045 26100.00000 0 -2194289.426 -15180502.293 -20366692.962 10 0 60045 27000.00000 0 -339333.733 -13354525.587 -21718594.608 10 0 60045 27900.00000 0 1757034.815 -11585709.079 -22648222.865 10 0 60045 28800.00000 0 4051851.059 -9929848.197 -23137619.854 10 0 60045 29700.00000 0 6492357.266 -8434718.007 -23177394.839 10 0 60045 30600.00000 0 9017983.491 -7138192.542 -22766897.120 10 0 60045 31500.00000 0 11562662.808 -6066798.285 -21914219.179 10 0 60045 32400.00000 0 14057385.358 -5234760.813 -20636030.781 10 0 60045 33300.00000 0 16432885.314 -4643582.862 -18957247.793 10 0 60045 34200.00000 0 18622349.504 -4282169.770 -16910542.582 10 0 60045 35100.00000 0 20564035.628 -4127495.362 -14535705.688 10 0 60045 36000.00000 0 22203691.817 -4145778.835 -11878871.214 10 0 60045 36900.00000 0 23496677.571 -4294121.894 -8991620.894 10 0 60045 37800.00000 0 24409698.496 -4522536.273 -5929984.107 10 0 60045 38700.00000 0 24922083.349 -4776275.518 -2753352.999 10 0 60045 39600.00000 0 25026550.836 -4998372.262 476666.385 10 0 60045 40500.00000 0 24729434.898 -5132273.688 3697444.874 10 0 60045 41400.00000 0 24050359.669 -5124463.850 6846539.998 10 0 60045 42300.00000 0 23021378.190 -4926962.072 9862901.595 10 0 60045 43200.00000 0 21685611.212 -4499591.911 12688050.088 10 0 60045 44100.00000 0 20095443.139 -3811924.765 15267204.978 10 0 60045 45000.00000 0 18310350.486 -2844815.783 17550342.026 10 0 60045 45900.00000 0 16394453.340 -1591466.741 19493159.110 10 0 60045 46800.00000 0 14413891.668 -57970.191 21057932.555 10 0 60045 47700.00000 0 12434135.490 1736689.311 22214247.743 10 0 60045 48600.00000 0 10517340.503 3761178.528 22939590.232 10 0 60045 49500.00000 0 8719858.817 5972882.616 23219786.122 10 0 60045 50400.00000 0 7090008.073 8319453.265 23049283.077 10 0 60045 51300.00000 0 5666191.446 10740775.321 22431266.304 10 0 60045 52200.00000 0 4475446.655 13171271.724 21377606.638 10 0 60045 53100.00000 0 3532484.331 15542452.227 19908640.977 10 0 60045 54000.00000 0 2839255.857 17785600.882 18052788.331 10 0 60045 54900.00000 0 2385068.701 19834491.032 15846007.877 10 0 60045 55800.00000 0 2147244.409 21628014.768 13331108.544 10 0 60045 56700.00000 0 2092291.496 23112616.943 10556922.649 10 0 60045 57600.00000 0 2177543.619 24244431.472 7577359.041 10 0 60045 58500.00000 0 2353193.517 24991029.762 4450353.915 10 0 60045 59400.00000 0 2564636.121 25332707.156 1236739.814 10 0 60045 60300.00000 0 2755020.767 25263252.678 -2000944.694 10 0 60045 61200.00000 0 2867903.334 24790169.167 -5199680.659 10 0 60045 62100.00000 0 2849884.570 23934334.276 -8297204.817 10 0 60045 63000.00000 0 2653121.427 22729116.634 -11233230.905 10 0 60045 63900.00000 0 2237603.579 21218984.741 -13950631.321 10 0 60045 64800.00000 0 1573097.433 19457667.714 -16396555.167 10 0 60045 65700.00000 0 640674.202 17505945.972 -18523460.276 10 0 60045 66600.00000 0 -566243.430 15429165.474 -20290038.738 10 0 60045 67500.00000 0 -2041360.995 13294580.512 -21662017.939 10 0 60045 68400.00000 0 -3765540.746 11168636.893 -22612821.871 10 0 60045 69300.00000 0 -5707378.206 9114309.409 -23124080.435 10 0 60045 70200.00000 0 -7824302.905 7188604.685 -23185977.636 10 0 60045 71100.00000 0 -10064157.487 5440333.081 -22797432.769 10 0 60045 72000.00000 0 -12367189.468 3908241.643 -21966111.919 10 0 60045 72900.00000 0 -14668372.753 2619584.632 -20708270.320 10 0 60045 73800.00000 0 -16899962.507 1589189.652 -19048429.189 10 0 60045 74700.00000 0 -18994177.238 819056.579 -17018893.751 10 0 60045 75600.00000 0 -20885896.859 298504.184 -14659121.996 10 0 60045 76500.00000 0 -22515264.816 4856.502 -12014956.475 10 0 60045 77400.00000 0 -23830086.361 -95361.448 -9137733.978 10 0 60045 78300.00000 0 -24787923.535 -44770.219 -6083290.239 10 0 60045 79200.00000 0 -25357800.028 106904.606 -2910878.743 10 0 60045 80100.00000 0 -25521445.236 305173.307 317975.507 10 0 60045 81000.00000 0 -25274026.036 493324.075 3540665.274 10 0 60045 81900.00000 0 -24624336.096 615058.642 6694710.540 10 0 60045 82800.00000 0 -23594435.077 617110.140 9718964.873 10 0 60045 83700.00000 0 -22218752.941 451732.596 12554795.599 10 0 60045 84600.00000 0 -20542696.797 78956.915 15147215.249 10 0 60045 85500.00000 0 -18620818.261 -531482.003 17445942.710 10 0 60046 0.00000 0 -16514617.695 -1398628.549 19406373.858 10 0 60046 900.00000 0 -14290075.198 -2529265.159 20990444.327 10 0 60046 1800.00000 0 -12015013.527 -3917390.111 22167365.594 10 0 60046 2700.00000 0 -9756398.294 -5544239.169 22914223.994 10 0 60046 3600.00000 0 -7577689.858 -7378850.732 23216428.555 10 0 60046 4500.00000 0 -5536355.362 -9379153.074 23068000.062 10 0 60046 5400.00000 0 -3681644.006 -11493530.090 22471695.255 10 0 60046 6300.00000 0 -2052717.648 -13662802.033 21438963.227 10 0 60046 7200.00000 0 -677214.302 -15822540.191 19989734.035 10 0 60046 8100.00000 0 429695.842 -17905620.238 18152042.688 10 0 60046 9000.00000 0 1265722.602 -19844908.594 15961494.710 10 0 60046 9900.00000 0 1841319.090 -21575969.969 13460582.663 10 0 60046 10800.00000 0 2179002.056 -23039682.876 10697866.037 10 0 60046 11700.00000 0 2312158.139 -24184653.202 7727029.791 10 0 60046 12600.00000 0 2283386.814 -24969323.881 4605839.630 10 0 60046 13500.00000 0 2142450.606 -25363691.241 1395014.409 10 0 60046 14400.00000 0 1943920.160 -25350554.935 -1842961.913 10 0 60046 15300.00000 0 1744614.922 -24926248.003 -5045064.815 10 0 60046 16200.00000 0 1600949.153 -24100815.717 -8148965.401 10 0 60046 17100.00000 0 1566297.078 -22897635.285 -11094253.030 10 0 60046 18000.00000 0 1688490.254 -21352492.401 -13823619.442 10 0 60046 18900.00000 0 2007554.439 -19512153.714 -16283980.386 10 0 60046 19800.00000 0 2553782.907 -17432495.683 -18427512.261 10 0 60046 20700.00000 0 3346228.598 -15176268.981 -20212583.181 10 0 60046 21600.00000 0 4391679.498 -12810592.771 -21604560.378 10 0 60046 22500.00000 0 5684160.943 -10404284.205 -22576478.572 10 0 60046 23400.00000 0 7204986.137 -8025135.050 -23109556.889 10 0 60046 24300.00000 0 8923352.983 -5737249.044 -23193555.088 10 0 60046 25200.00000 0 10797462.366 -3598550.550 -22826963.022 10 0 60046 26100.00000 0 12776111.183 -1658567.493 -22017020.494 10 0 60046 27000.00000 0 14800693.680 43420.278 -20779567.890 10 0 60046 27900.00000 0 16807527.659 1479791.627 -19138731.051 10 0 60046 28800.00000 0 18730408.707 2635496.702 -17126446.912 10 0 60046 29700.00000 0 20503286.118 3508435.296 -14781839.349 10 0 60046 30600.00000 0 22062949.203 4109287.108 -12150457.369 10 0 60046 31500.00000 0 23351612.215 4460802.865 -9283390.404 10 0 60046 32400.00000 0 24319290.322 4596587.670 -6236277.741 10 0 60046 33300.00000 0 24925867.772 4559429.092 -3068231.083 10 0 60046 34200.00000 0 25142772.119 4399241.396 159308.974 10 0 60046 35100.00000 0 24954184.802 4170713.316 3383760.611 10 0 60046 36000.00000 0 24357737.640 3930758.996 6542609.746 10 0 60046 36900.00000 0 23364666.169 3735879.940 9574617.063 10 0 60046 37800.00000 0 21999413.372 3639549.359 12420999.962 10 0 60046 38700.00000 0 20298700.114 3689729.344 15026566.899 10 0 60046 39600.00000 0 18310100.741 3926625.632 17340782.466 10 0 60046 40500.00000 0 16090182.723 4380774.790 19318743.067 10 0 60046 41400.00000 0 13702287.200 5071544.777 20922044.771 10 0 60046 42300.00000 0 11214042.085 6006112.615 22119526.965 10 0 60046 43200.00000 0 8694710.325 7178963.146 22887877.769 10 0 60046 44100.00000 0 6212482.675 8571931.184 23212089.701 10 0 60046 45000.00000 0 3831826.679 10154786.880 23085756.728 10 0 60046 45900.00000 0 1611001.261 11886341.509 22511206.691 10 0 60046 46800.00000 0 -400160.450 13716029.190 21499465.983 10 0 60046 47700.00000 0 -2162108.258 15585900.060 20070056.369 10 0 60046 48600.00000 0 -3646995.091 17432942.984 18250626.944 10 0 60046 49500.00000 0 -4839601.258 19191641.734 16076427.278 10 0 60046 50400.00000 0 -5737724.353 20796658.267 13589630.967 10 0 60046 51300.00000 0 -6352018.709 22185530.873 10838521.846 10 0 60046 52200.00000 0 -6705291.476 23301273.757 7876558.025 10 0 60046 53100.00000 0 -6831285.343 24094768.220 4761331.679 10 0 60046 54000.00000 0 -6772999.869 24526844.011 1553444.923 10 0 60046 54900.00000 0 -6580623.185 24569962.156 -1684675.906 10 0 60046 55800.00000 0 -6309162.561 24209427.338 -4890003.652 10 0 60046 56700.00000 0 -6015875.413 23444077.790 -8000146.572 10 0 60046 57600.00000 0 -5757610.896 22286422.912 -10954572.228 10 0 60046 58500.00000 0 -5588176.074 20762222.373 -13695794.030 10 0 60046 59400.00000 0 -5555839.517 18909524.276 -16170496.430 10 0 60046 60300.00000 0 -5701079.128 16777202.919 -18330576.138 10 0 60046 61200.00000 0 -6054670.359 14423057.872 -20134078.735 10 0 60046 62100.00000 0 -6636196.237 11911554.430 -21546012.436 10 0 60046 63000.00000 0 -7453042.486 9311300.344 -22539023.522 10 0 60046 63900.00000 0 -8499920.267 6692364.503 -23093920.865 10 0 60046 64800.00000 0 -9758936.671 4123549.391 -23200040.144 10 0 60046 65700.00000 0 -11200209.988 1669730.606 -22855441.545 10 0 60046 66600.00000 0 -12783003.839 -610626.451 -22066937.949 10 0 60046 67500.00000 0 -14457332.639 -2667670.477 -20849953.815 10 0 60046 68400.00000 0 -16165971.188 -4461998.424 -19228218.081 10 0 60046 69300.00000 0 -17846784.376 -5966045.210 -17233297.477 10 0 60046 70200.00000 0 -19435279.738 -7164972.913 -14903979.513 10 0 60046 71100.00000 0 -20867276.312 -8057024.316 -12285517.157 10 0 60046 72000.00000 0 -22081578.428 -8653327.893 -9428749.839 10 0 60046 72900.00000 0 -23022542.808 -8977164.239 -6389117.677 10 0 60046 73800.00000 0 -23642431.829 -9062726.292 -3225587.857 10 0 60046 74700.00000 0 -23903454.602 -8953426.713 486.153 10 0 60046 75600.00000 0 -23779410.560 -8699824.687 3226550.629 10 0 60046 76500.00000 0 -23256866.756 -8357260.126 6390060.061 10 0 60046 77400.00000 0 -22335819.507 -7983295.418 9429684.815 10 0 60046 78300.00000 0 -21029812.449 -7635072.808 12286494.842 10 0 60046 79200.00000 0 -19365505.659 -7366698.856 14905096.853 10 0 60046 80100.00000 0 -17381713.298 -7226766.227 17234703.258 10 0 60046 81000.00000 0 -15127949.176 -7256117.246 19230112.661 10 0 60046 81900.00000 0 -12662539.982 -7485943.489 20852583.407 10 0 60046 82800.00000 0 -10050383.758 -7936301.721 22070583.675 10 0 60046 83700.00000 0 -7360445.751 -8615109.115 22860404.017 10 0 60046 84600.00000 0 -4663094.610 -9517660.881 23206620.649 10 0 60046 85500.00000 0 -2027388.538 -10626691.703 23102400.522 10 0 60047 0.00000 0 481576.674 -11912979.684 22549642.079 10 0 60047 900.00000 0 2805149.720 -13336469.789 21558948.017 10 0 60047 1800.00000 0 4893330.130 -14847869.477 20149430.670 10 0 60047 2700.00000 0 6706612.042 -16390653.414 18348351.810 10 0 60047 3600.00000 0 8217385.553 -17903392.714 16190603.419 10 0 60047 4500.00000 0 9410838.709 -19322312.468 13718038.292 10 0 60047 5400.00000 0 10285322.423 -20583970.462 10978662.580 10 0 60047 6300.00000 0 10852163.228 -21627944.424 8025705.335 10 0 60047 7200.00000 0 11134932.118 -22399414.243 4916582.857 10 0 60047 8100.00000 0 11168200.787 -22851529.548 1711778.079 10 0 60047 9000.00000 0 10995838.473 -22947461.771 -1526342.782 10 0 60047 9900.00000 0 10668922.337 -22662052.974 -4734752.426 10 0 60047 10800.00000 0 10243350.912 -21982990.670 -7850998.732 10 0 60047 11700.00000 0 9777262.930 -20911458.118 -10814429.883 10 0 60047 12600.00000 0 9328372.146 -19462231.835 -13567383.321 10 0 60047 13500.00000 0 8951332.284 -17663221.754 -16056314.456 10 0 60047 14400.00000 0 8695244.732 -15554473.091 -18232842.454 10 0 60047 15300.00000 0 8601415.288 -13186671.859 -20054692.324 10 0 60047 16200.00000 0 8701455.331 -10619216.839 -21486514.990 10 0 60047 17100.00000 0 9015807.873 -7917938.847 -22500569.713 10 0 60047 18000.00000 0 9552760.684 -5152562.770 -23077256.174 10 0 60047 18900.00000 0 10307987.866 -2394018.150 -23205486.650 10 0 60047 19800.00000 0 11264638.888 288289.927 -22882891.941 10 0 60047 20700.00000 0 12393970.997 2829136.642 -22115857.887 10 0 60047 21600.00000 0 13656498.132 5169950.393 -20919392.520 10 0 60047 22500.00000 0 15003607.918 7261001.306 -19316827.014 10 0 60047 23400.00000 0 16379578.776 9063215.699 -17339356.666 10 0 60047 24300.00000 0 17723912.560 10549542.692 -15025431.036 10 0 60047 25200.00000 0 18973885.012 11705817.839 -12420005.110 10 0 60047 26100.00000 0 20067207.241 12531089.567 -9573666.025 10 0 60047 27000.00000 0 20944686.795 13037396.620 -6541652.111 10 0 60047 27900.00000 0 21552776.927 13249007.495 -3382783.144 10 0 60047 28800.00000 0 21845907.234 13201155.204 -158322.371 10 0 60047 29700.00000 0 21788498.012 12938321.731 3069207.782 10 0 60047 30600.00000 0 21356573.756 12512145.182 6237233.585 10 0 60047 31500.00000 0 20538908.014 11979038.332 9284338.212 10 0 60047 32400.00000 0 19337651.249 11397619.178 12151447.124 10 0 60047 33300.00000 0 17768414.897 10826061.805 14782968.022 10 0 60047 34200.00000 0 15859807.359 10319479.123 17127863.611 10 0 60047 35100.00000 0 13652440.423 9927447.532 19140636.879 10 0 60047 36000.00000 0 11197446.420 9691777.596 20782210.308 10 0 60047 36900.00000 0 8554566.720 9644624.490 22020682.404 10 0 60047 37800.00000 0 5789889.752 9807017.871 22831947.290 10 0 60047 38700.00000 0 2973331.248 10187873.334 23200165.601 10 0 60047 39600.00000 0 175960.068 10783527.716 23118077.528 10 0 60047 40500.00000 0 -2532720.532 11577818.707 22587151.705 10 0 60047 41400.00000 0 -5087424.382 12542706.635 21617566.529 10 0 60047 42300.00000 0 -7429557.243 13639413.618 20228023.492 10 0 60047 43200.00000 0 -9509412.753 14820033.568 18445395.174 10 0 60047 44100.00000 0 -11287998.446 16029546.583 16304213.655 10 0 60047 45000.00000 0 -12738415.901 17208153.959 13846008.251 10 0 60047 45900.00000 0 -13846737.494 18293836.106 11118504.510 10 0 60047 46800.00000 0 -14612343.189 19225025.781 8174699.367 10 0 60047 47700.00000 0 -15047703.415 19943283.619 5071830.143 10 0 60047 48600.00000 0 -15177617.519 20395862.350 1870257.508 10 0 60047 49500.00000 0 -15037940.483 20538050.428 -1367715.437 10 0 60047 50400.00000 0 -14673852.406 20335194.834 -4579064.145 10 0 60047 51300.00000 0 -14137744.931 19764316.323 -7701278.859 10 0 60047 52200.00000 0 -13486815.168 18815247.663 -10673590.945 10 0 60047 53100.00000 0 -12780470.215 17491245.773 -13438164.215 10 0 60047 54000.00000 0 -12077653.326 15809051.138 -15941227.121 10 0 60047 54900.00000 0 -11434205.931 13798391.421 -18134123.071 10 0 60047 55800.00000 0 -10900377.932 11500949.812 -19974257.982 10 0 60047 56700.00000 0 -10518591.981 8968841.312 -21425926.646 10 0 60047 57600.00000 0 -10321556.347 6262660.655 -22461002.148 10 0 60047 58500.00000 0 -10330805.847 3449183.526 -23059475.474 10 0 60047 59400.00000 0 -10555731.929 598816.840 -23209835.654 10 0 60047 60300.00000 0 -10993142.178 -2217095.937 -22909283.885 10 0 60047 61200.00000 0 -11627367.105 -4929002.772 -22163778.342 10 0 60047 62100.00000 0 -12430909.076 -7471791.681 -20987909.593 10 0 60047 63000.00000 0 -13365605.516 -9787250.922 -19404609.592 10 0 60047 63900.00000 0 -14384257.070 -11826239.725 -17444700.370 10 0 60047 64800.00000 0 -15432652.025 -13550480.766 -15146291.363 10 0 60047 65700.00000 0 -16451901.795 -14933901.389 -12554037.158 10 0 60047 66600.00000 0 -17380989.329 -15963469.359 -9718269.995 10 0 60047 67500.00000 0 -18159423.411 -16639489.958 -6694023.734 10 0 60047 68400.00000 0 -18729887.411 -16975353.641 -3539968.016 10 0 60047 69300.00000 0 -19040771.253 -16996746.281 -317273.155 10 0 60047 70200.00000 0 -19048480.217 -16740356.398 2911572.410 10 0 60047 71100.00000 0 -18719423.506 -16252134.649 6083969.386 10 0 60047 72000.00000 0 -18031598.857 -15585179.438 9138416.347 10 0 60047 72900.00000 0 -16975706.313 -14797338.038 12015696.791 10 0 60047 73800.00000 0 -15555743.856 -13948624.262 14660021.800 10 0 60047 74700.00000 0 -13789059.175 -13098561.327 17020106.575 10 0 60047 75600.00000 0 -11705854.371 -12303561.443 19050160.440 10 0 60047 76500.00000 0 -9348163.022 -11614452.071 20710771.630 10 0 60047 77400.00000 0 -6768340.908 -11074252.536 21969670.200 10 0 60047 78300.00000 0 -4027131.696 -10716294.267 22802354.661 10 0 60047 79200.00000 0 -1191386.456 -10562763.619 23192570.448 10 0 60047 80100.00000 0 1668469.749 -10623728.700 23132630.944 10 0 60047 81000.00000 0 4481120.399 -10896691.593 22623574.612 10 0 60047 81900.00000 0 7177079.102 -11366685.470 21675154.662 10 0 60047 82800.00000 0 9691338.100 -12006913.495 20305660.668 10 0 60047 83700.00000 0 11965834.388 -12779903.654 18541574.626 10 0 60047 84600.00000 0 13951631.284 -13639131.954 16417067.061 10 0 60047 85500.00000 0 15610724.693 -14531046.493 13973341.897 99